period_start,C,m1,H,J0,J1,J2,J3,J4,J5,JA,JB,JC,JD,JJ,JK,JN,#
2018-03-31 00:03:48,0.09,6.45,0.00,22.98,26.70,29.72,14.07,49.37,1021.99,2025.01,1686.86,1819.99,2066.36,599.93,599.21,37.22,0000 0000 0000 0000 000000
2018-03-31 00:08:50,0.13,6.45,0.00,23.00,26.72,29.75,14.07,49.51,1021.98,2025.00,1685.86,1819.20,2065.63,599.93,599.18,37.27,0000 0000 0000 0000 000000
2018-03-31 00:13:51,0.11,6.46,0.00,23.02,26.72,29.76,14.06,49.38,1021.87,2025.00,1684.87,1818.55,2064.80,600.47,599.50,37.32,0000 0000 0000 0000 000000
2018-03-31 00:18:52,0.09,6.46,0.00,23.05,26.75,29.79,14.01,49.47,1021.70,2025.00,1683.92,1817.91,2063.97,600.24,599.04,37.37,0000 0000 0000 0000 000000
2018-03-31 00:23:54,0.13,6.47,0.00,23.08,26.76,29.78,14.10,49.38,1021.59,2025.00,1682.88,1817.08,2063.08,599.84,598.54,37.42,0000 0000 0000 0000 000000
2018-03-31 00:28:55,0.13,6.48,0.00,23.11,26.77,29.81,14.08,49.38,1021.69,2025.00,1681.89,1816.39,2062.21,600.18,598.88,37.47,0000 0000 0000 0000 000000
2018-03-31 00:33:57,0.10,6.48,0.00,23.12,26.79,29.82,14.07,49.37,1021.55,2025.00,1680.88,1815.80,2061.37,599.92,598.59,37.52,0000 0000 0000 0000 000000
2018-03-31 00:38:58,0.11,6.49,0.00,23.17,26.80,29.84,14.10,49.35,1021.52,2024.99,1679.91,1815.03,2060.55,600.08,598.72,37.57,0000 0000 0000 0000 000000
2018-03-31 00:44:00,0.12,6.49,0.00,23.19,26.82,29.86,14.04,49.27,1021.50,2024.99,1678.91,1814.26,2059.76,599.93,598.45,37.62,0000 0000 0000 0000 000000
2018-03-31 00:49:01,0.11,6.50,0.00,23.22,26.84,29.89,14.00,49.34,1021.50,2024.95,1677.88,1813.58,2058.91,599.84,598.28,37.68,0000 0000 0000 0000 000000
2018-03-31 00:54:02,0.08,6.51,0.00,23.24,26.86,29.90,14.03,49.38,1021.50,2024.85,1676.87,1812.88,2057.98,600.13,598.57,37.73,0000 0000 0000 0000 000000
2018-03-31 00:59:03,0.09,6.51,0.00,23.27,26.88,29.92,14.01,49.39,1021.50,2024.58,1675.90,1812.06,2057.07,599.73,598.11,37.78,0000 0000 0000 0000 000000
2018-03-31 01:04:04,0.10,6.52,0.00,23.31,26.90,29.97,14.01,49.25,1021.50,2024.26,1674.90,1811.35,2056.16,599.87,598.18,37.83,0000 0000 0000 0000 000000
2018-03-31 01:09:05,0.09,6.52,0.00,23.34,26.93,29.97,14.08,49.42,1021.49,2024.11,1673.95,1810.65,2055.33,599.91,598.09,37.88,0000 0000 0000 0000 000000
2018-03-31 01:14:06,0.09,6.53,0.00,23.37,26.96,30.01,14.03,49.45,1021.47,2024.04,1672.97,1809.98,2054.46,599.63,597.57,37.93,0000 0000 0000 0000 000000
2018-03-31 01:19:07,0.13,6.53,0.00,23.41,26.98,30.02,14.01,49.38,1021.46,2024.00,1671.94,1809.12,2053.55,600.12,598.11,37.98,0000 0000 0000 0000 000000
2018-03-31 01:24:08,0.13,6.54,0.00,23.42,27.01,30.04,14.01,49.44,1021.45,2024.00,1670.96,1808.34,2052.64,599.78,597.77,38.03,0000 0000 0000 0000 000000
2018-03-31 01:29:10,0.13,6.54,0.00,23.46,27.05,30.08,14.04,49.38,1021.44,2024.00,1669.91,1807.65,2051.76,599.96,597.95,38.08,0000 0000 0000 0000 000000
2018-03-31 01:34:11,0.09,6.55,0.00,23.49,27.08,30.10,14.01,49.41,1021.34,2024.00,1668.88,1806.93,2050.88,600.13,597.88,38.13,0000 0000 0000 0000 000000
2018-03-31 01:39:12,0.13,6.56,0.00,23.53,27.11,30.13,13.90,49.22,1021.07,2023.98,1667.82,1806.07,2049.91,600.14,597.64,38.18,0000 0000 0000 0000 000000
2018-03-31 01:44:14,0.11,6.56,0.00,23.56,27.13,30.17,13.90,49.25,1021.08,2023.86,1666.77,1805.25,2048.97,599.57,597.16,38.23,0000 0000 0000 0000 000000
2018-03-31 01:49:15,0.08,6.57,0.00,23.60,27.16,30.19,14.07,49.26,1021.05,2023.52,1665.77,1804.55,2048.04,600.18,597.62,38.28,0000 0000 0000 0000 000000
2018-03-31 01:54:16,0.07,6.57,0.00,23.64,27.19,30.22,14.01,49.38,1021.03,2023.35,1664.78,1803.88,2047.12,600.24,597.57,38.33,0000 0000 0000 0000 000000
2018-03-31 01:59:18,0.09,6.58,0.00,23.68,27.22,30.23,14.03,49.34,1021.02,2023.04,1663.79,1803.05,2046.60,599.98,597.24,38.38,0000 0000 0000 0000 000000
2018-03-31 02:04:19,0.12,6.58,0.00,23.73,27.25,30.27,13.92,49.29,1021.02,2023.02,1662.82,1802.27,2045.72,599.72,596.87,38.43,0000 0000 0000 0000 000000
2018-03-31 02:09:20,0.12,6.59,0.00,23.76,27.27,30.31,13.99,49.37,1021.01,2023.00,1661.77,1801.60,2044.83,599.86,597.14,38.48,0000 0000 0000 0000 000000
2018-03-31 02:14:22,0.12,6.59,0.00,23.80,27.30,30.34,13.96,49.29,1021.01,2023.00,1660.74,1800.79,2043.91,600.03,597.10,38.53,0000 0000 0000 0000 000000
2018-03-31 02:19:23,0.11,6.60,0.00,23.82,27.33,30.36,13.98,49.30,1021.01,2022.99,1659.72,1800.01,2042.96,600.23,597.22,38.59,0000 0000 0000 0000 000000
2018-03-31 02:24:24,0.14,6.61,0.00,23.87,27.36,30.39,14.03,49.33,1021.01,2022.96,1658.67,1799.18,2042.01,600.35,597.11,38.64,0000 0000 0000 0000 000000
2018-03-31 02:29:25,0.09,6.61,0.00,23.91,27.39,30.42,13.97,49.27,1021.01,2022.72,1657.63,1798.40,2041.07,599.67,596.44,38.69,0000 0000 0000 0000 000000
2018-03-31 02:34:27,0.07,6.62,0.00,23.96,27.42,30.45,14.00,49.20,1021.01,2022.27,1656.61,1797.67,2040.15,600.17,596.89,38.74,0000 0000 0000 0000 000000
2018-03-31 02:39:28,0.09,6.62,0.00,24.00,27.46,30.48,14.01,49.23,1020.99,2022.05,1655.59,1796.90,2039.27,599.96,596.56,38.79,0000 0000 0000 0000 000000
2018-03-31 02:44:29,0.13,6.63,0.00,24.04,27.49,30.52,13.93,49.29,1020.96,2022.00,1654.47,1796.04,2038.23,599.87,596.30,38.84,0000 0000 0000 0000 000000
2018-03-31 02:49:30,0.14,6.64,0.00,24.10,27.52,30.55,13.94,49.33,1020.93,2022.00,1653.36,1795.17,2037.26,599.70,596.25,38.89,0000 0000 0000 0000 000000
2018-03-31 02:54:32,0.14,6.64,0.00,24.13,27.56,30.59,13.94,49.31,1020.67,2022.00,1652.26,1794.35,2036.31,599.99,596.19,38.94,0000 0000 0000 0000 000000
2018-03-31 02:59:33,0.14,6.65,0.00,24.17,27.59,30.61,13.97,49.36,1020.56,2021.99,1651.11,1793.54,2035.34,600.11,596.10,38.99,0000 0000 0000 0000 000000
2018-03-31 03:04:34,0.13,6.66,0.00,24.22,27.63,30.66,13.95,49.27,1020.54,2021.93,1649.91,1792.65,2034.30,600.07,595.96,39.04,0000 0000 0000 0000 000000
2018-03-31 03:09:36,0.04,6.66,0.00,24.27,27.66,30.69,13.99,49.35,1020.55,2021.52,1648.84,1791.92,2033.29,600.07,595.68,39.09,0000 0000 0000 0000 000000
2018-03-31 03:14:37,0.11,6.67,0.00,24.32,27.70,30.72,13.95,49.46,1020.55,2021.12,1647.77,1791.06,2032.22,599.71,595.57,39.14,0000 0000 0000 0000 000000
2018-03-31 03:19:38,0.15,6.67,0.00,24.37,27.73,30.76,13.98,49.28,1020.54,2021.03,1646.60,1790.18,2031.34,599.79,595.38,39.19,0000 0000 0000 0000 000000
2018-03-31 03:24:39,0.13,6.68,0.00,24.42,27.77,30.79,13.96,49.34,1020.54,2021.00,1645.54,1789.37,2030.26,599.83,595.32,39.24,0000 0000 0000 0000 000000
2018-03-31 03:29:40,0.14,6.69,0.00,24.47,27.81,30.83,13.90,49.33,1020.53,2021.00,1644.40,1788.47,2029.26,600.15,595.59,39.29,0000 0000 0000 0000 000000
2018-03-31 03:34:41,0.13,6.69,0.00,24.51,27.84,30.88,13.93,49.47,1020.52,2020.98,1643.30,1787.66,2028.27,599.96,595.40,39.34,0000 0000 0000 0000 000000
2018-03-31 03:39:42,0.12,6.70,0.00,24.56,27.88,30.91,13.98,49.33,1020.52,2020.91,1642.15,1786.73,2027.19,599.96,595.25,39.39,0000 0000 0000 0000 000000
2018-03-31 03:44:44,0.09,6.71,0.00,24.61,27.92,30.96,13.83,49.12,1020.40,2020.63,1640.93,1785.83,2026.14,599.76,594.78,39.44,0000 0000 0000 0000 000000
2018-03-31 03:49:45,0.11,6.71,0.00,24.66,27.96,30.99,13.96,49.29,1020.30,2020.14,1639.71,1784.93,2025.01,600.10,595.05,39.49,0000 0000 0000 0000 000000
2018-03-31 03:54:46,0.13,6.72,0.00,24.71,28.00,31.02,13.96,49.40,1020.13,2020.02,1638.50,1784.02,2023.98,600.23,594.93,39.54,0000 0000 0000 0000 000000
2018-03-31 03:59:47,0.15,6.72,0.00,24.76,28.04,31.07,13.93,49.98,1020.06,2020.00,1637.33,1783.09,2022.88,600.14,594.61,39.60,0000 0000 0000 0000 000000
2018-03-31 04:04:48,0.15,6.73,0.00,24.82,28.07,31.11,13.83,49.88,1020.05,2019.99,1636.06,1782.09,2021.77,599.67,594.04,39.65,0000 0000 0000 0000 000000
2018-03-31 04:09:50,0.15,6.74,0.00,24.86,28.11,31.15,13.85,49.66,1020.22,2019.97,1634.88,1781.13,2020.67,600.08,594.34,39.70,0000 0000 0000 0000 000000
2018-03-31 04:14:51,0.12,6.75,0.00,24.90,28.15,31.20,13.89,49.65,1020.40,2019.67,1633.65,1780.21,2019.54,599.78,594.29,39.75,0000 0000 0000 0000 000000
2018-03-31 04:19:52,0.10,6.75,0.00,24.95,28.19,31.24,13.88,49.55,1020.16,2019.17,1632.48,1779.21,2018.44,599.86,594.04,39.80,0000 0000 0000 0000 000000
2018-03-31 04:24:53,0.14,6.76,0.00,24.98,28.23,31.27,13.96,49.56,1020.05,2019.02,1631.28,1778.34,2017.35,600.15,594.20,39.85,0000 0000 0000 0000 000000
2018-03-31 04:29:54,0.15,6.77,0.00,25.01,28.27,31.31,13.91,49.60,1020.04,2019.00,1630.01,1777.34,2016.25,599.97,593.95,39.90,0000 0000 0000 0000 000000
2018-03-31 04:34:56,0.17,6.77,0.00,25.03,28.31,31.36,13.84,49.51,1020.04,2018.99,1628.75,1776.42,2015.14,599.93,593.91,39.95,0000 0000 0000 0000 000000
2018-03-31 04:39:57,0.13,6.78,0.00,25.06,28.36,31.39,13.88,49.40,1020.04,2018.90,1627.63,1775.55,2013.91,599.88,593.80,40.00,0000 0000 0000 0000 000000
2018-03-31 04:44:58,0.10,6.79,0.00,25.08,28.40,31.42,13.92,49.31,1020.04,2018.55,1626.51,1774.58,2012.87,600.17,594.03,40.05,0000 0000 0000 0000 000000
2018-03-31 04:50:00,0.09,6.79,0.00,25.10,28.44,31.46,13.90,49.38,1019.98,2018.09,1625.37,1773.68,2011.81,600.00,593.76,40.10,0000 0000 0000 0000 000000
2018-03-31 04:55:01,0.14,6.80,0.00,25.13,28.48,31.49,13.88,49.42,1019.76,2018.01,1624.24,1772.75,2010.71,600.04,593.56,40.15,0000 0000 0000 0000 000000
2018-03-31 05:00:03,0.16,6.81,0.00,25.16,28.51,31.53,13.96,49.26,1019.57,2018.00,1623.02,1771.82,2009.57,600.10,593.55,40.20,0000 0000 0000 0000 000000
2018-03-31 05:05:04,0.16,6.81,0.00,25.18,28.54,31.54,13.90,49.13,1019.55,2018.00,1621.71,1770.88,2008.51,600.05,593.44,40.25,0000 0000 0000 0000 000000
2018-03-31 05:10:05,0.15,6.82,0.00,25.21,28.57,31.57,13.90,49.16,1019.55,2017.98,1620.47,1769.92,2007.42,600.15,593.49,40.30,0000 0000 0000 0000 000000
2018-03-31 05:15:07,0.15,6.83,0.00,25.23,28.60,31.60,13.95,49.18,1019.55,2017.98,1619.25,1768.95,2006.30,600.13,593.41,40.35,0000 0000 0000 0000 000000
2018-03-31 05:20:08,0.13,6.84,0.00,25.26,28.62,31.63,13.93,49.21,1019.56,2017.88,1617.93,1767.99,2005.16,600.19,593.47,40.40,0000 0000 0000 0000 000000
2018-03-31 05:25:09,0.13,6.85,0.00,25.27,28.63,31.63,13.81,48.98,1019.55,2017.47,1616.62,1766.97,2003.96,599.93,593.13,40.45,0000 0000 0000 0000 000000
2018-03-31 05:30:10,0.14,6.85,0.00,25.29,28.65,31.63,13.80,48.99,1019.55,2017.28,1615.41,1765.99,2002.81,599.99,593.20,40.51,0000 0000 0000 0000 000000
2018-03-31 05:35:12,0.15,6.86,0.00,25.31,28.65,31.63,13.97,49.13,1019.53,2017.12,1614.02,1765.03,2001.70,600.21,593.23,40.56,0000 0000 0000 0000 000000
2018-03-31 05:40:13,0.16,6.87,0.00,25.33,28.67,31.63,13.84,49.14,1019.47,2017.10,1612.76,1764.09,2000.63,600.04,593.11,40.61,0000 0000 0000 0000 000000
2018-03-31 05:45:15,0.16,6.88,0.00,25.36,28.67,31.64,13.92,49.15,1019.38,2017.06,1611.50,1763.11,1999.50,600.20,593.18,40.66,0000 0000 0000 0000 000000
2018-03-31 05:50:16,0.15,6.89,0.00,25.42,28.67,31.70,13.81,49.09,1019.33,2017.03,1610.21,1762.10,1998.36,599.78,592.63,40.71,0000 0000 0000 0000 000000
2018-03-31 05:55:17,0.17,6.89,0.00,25.49,28.68,31.80,13.97,49.30,1019.23,2017.00,1608.85,1761.11,1997.19,600.29,592.87,40.76,0000 0000 0000 0000 000000
2018-03-31 06:00:19,0.17,6.90,0.00,25.55,28.69,31.79,13.91,49.26,1019.15,2017.00,1607.58,1760.16,1996.06,599.83,592.25,40.81,0000 0000 0000 0000 000000
2018-03-31 06:05:20,0.15,6.91,0.00,25.59,28.70,31.73,13.86,49.32,1019.09,2017.00,1606.37,1759.26,1994.93,599.74,592.07,40.86,0000 0000 0000 0000 000000
2018-03-31 06:10:21,0.17,6.92,0.00,25.64,28.70,31.62,13.81,49.35,1019.08,2017.00,1605.02,1758.21,1993.79,599.74,592.02,40.91,0000 0000 0000 0000 000000
2018-03-31 06:15:22,0.18,6.93,0.00,25.67,28.70,31.58,13.86,49.44,1019.07,2017.00,1603.69,1757.17,1992.64,600.00,592.10,40.96,0000 0000 0000 0000 000000
2018-03-31 06:20:24,0.16,6.94,0.00,25.68,28.69,31.57,13.84,49.34,1019.06,2017.00,1602.45,1756.22,1991.54,600.14,592.35,41.01,0000 0000 0000 0000 000000
2018-03-31 06:25:25,0.16,6.94,0.00,25.70,28.67,31.48,13.80,49.42,1019.06,2017.00,1601.08,1755.27,1990.38,600.04,592.04,41.06,0000 0000 0000 0000 000000
2018-03-31 06:30:27,0.17,6.95,0.00,25.72,28.66,31.45,13.92,49.51,1019.00,2017.00,1599.77,1754.33,1989.32,600.01,592.03,41.11,0000 0000 0000 0000 000000
2018-03-31 06:35:28,0.16,6.96,0.00,25.74,28.64,31.39,13.78,49.53,1018.98,2017.02,1598.57,1753.36,1988.20,599.72,591.72,41.16,0000 0000 0000 0000 000000
2018-03-31 06:40:29,0.15,6.97,0.00,25.76,28.62,31.32,13.85,49.50,1019.03,2017.02,1597.30,1752.42,1987.08,599.92,591.92,41.21,0000 0000 0000 0000 000000
2018-03-31 06:45:31,0.17,6.98,0.00,25.77,28.60,31.26,13.85,49.56,1018.97,2017.03,1595.94,1751.50,1985.94,600.36,592.25,41.26,0000 0000 0000 0000 000000
2018-03-31 06:50:32,0.17,6.99,0.00,25.78,28.57,31.23,13.84,49.57,1018.84,2017.09,1594.71,1750.53,1984.86,599.93,591.69,41.32,0000 0000 0000 0000 000000
2018-03-31 06:55:34,0.18,6.99,0.00,25.81,28.55,31.14,13.77,49.45,1018.91,2017.25,1593.47,1749.60,1983.90,599.98,591.74,41.37,0000 0000 0000 0000 000000
2018-03-31 07:00:35,0.19,7.01,0.00,25.82,28.52,31.13,13.80,49.54,1018.86,2017.72,1592.23,1748.75,1982.93,599.57,591.28,41.42,0000 0000 0000 0000 000000
2018-03-31 07:05:37,0.17,7.02,0.00,25.84,28.50,31.15,13.82,49.45,1018.74,2017.95,1590.91,1747.84,1981.91,599.81,591.42,41.47,0000 0000 0000 0000 000000
2018-03-31 07:10:38,0.16,7.02,0.00,25.87,28.47,31.17,13.78,49.52,1018.74,2017.97,1589.69,1746.94,1980.86,599.82,591.47,41.52,0000 0000 0000 0000 000000
2018-03-31 07:15:39,0.16,7.03,0.00,25.89,28.45,31.12,13.73,49.58,1018.60,2017.99,1588.46,1746.04,1979.87,599.52,590.98,41.57,0000 0000 0000 0000 000000
2018-03-31 07:20:41,0.15,7.04,0.00,25.91,28.42,31.11,13.77,49.56,1018.59,2017.99,1587.22,1745.14,1978.85,599.88,591.27,41.62,0000 0000 0000 0000 000000
2018-03-31 07:25:42,0.16,7.05,0.00,25.95,28.40,31.06,13.77,49.50,1018.57,2017.99,1585.98,1744.29,1977.79,599.74,591.05,41.67,0000 0000 0000 0000 000000
2018-03-31 07:30:43,0.18,7.06,0.00,25.97,28.37,31.01,13.76,49.59,1018.58,2018.00,1584.69,1743.42,1976.74,600.08,591.32,41.72,0000 0000 0000 0000 000000
2018-03-31 07:35:44,0.16,7.06,0.00,26.01,28.36,31.05,13.74,49.57,1018.57,2018.01,1583.46,1742.49,1975.72,599.88,591.05,41.77,0000 0000 0000 0000 000000
2018-03-31 07:40:46,0.15,7.07,0.00,26.03,28.34,31.02,13.79,49.37,1018.57,2018.02,1582.20,1741.60,1974.65,599.89,590.84,41.82,0000 0000 0000 0000 000000
2018-03-31 07:45:47,0.18,7.08,0.00,26.05,28.32,31.07,13.72,49.34,1018.57,2018.06,1580.88,1740.65,1973.51,600.02,591.07,41.87,0000 0000 0000 0000 000000
2018-03-31 07:50:48,0.16,7.09,0.00,26.08,28.30,31.05,13.78,49.40,1018.57,2018.21,1579.67,1739.79,1972.50,600.00,590.97,41.92,0000 0000 0000 0000 000000
2018-03-31 07:55:50,0.22,7.10,0.00,26.11,28.30,31.13,13.76,49.31,1018.57,2018.57,1578.39,1738.82,1971.45,599.89,590.85,41.97,0000 0000 0000 0000 000000
2018-03-31 08:00:51,0.16,7.11,0.00,26.13,28.27,31.13,13.67,49.17,1018.57,2018.61,1577.03,1737.87,1970.32,599.68,590.55,42.02,0000 0000 0000 0000 000000
2018-03-31 08:05:53,0.20,7.12,0.00,26.11,28.27,31.11,13.73,49.19,1018.56,2018.85,1575.72,1736.94,1969.23,600.13,591.03,42.07,0000 0000 0000 0000 000000
2018-03-31 08:10:55,0.17,7.13,0.00,25.89,28.26,31.07,13.86,49.27,1018.56,2018.93,1574.51,1735.99,1968.17,600.15,591.54,42.12,0000 0000 0000 0000 000000
2018-03-31 08:15:56,0.16,7.14,0.00,25.87,28.25,30.99,13.82,49.44,1018.52,2018.97,1573.16,1735.05,1967.02,599.92,591.29,42.17,0000 0000 0000 0000 000000
2018-03-31 08:20:57,0.18,7.15,0.00,25.85,28.25,30.98,13.72,49.39,1018.33,2018.97,1571.78,1734.08,1965.88,599.90,591.12,42.22,0000 0000 0000 0000 000000
2018-03-31 08:25:58,0.17,7.16,0.00,25.84,28.25,30.98,13.82,49.39,1018.13,2018.97,1570.53,1733.13,1964.78,600.11,591.32,42.27,0000 0000 0000 0000 000000
2018-03-31 08:30:59,0.16,7.17,0.00,25.83,28.24,31.00,13.75,49.38,1018.10,2018.99,1569.29,1732.17,1963.68,600.07,591.37,42.33,0000 0000 0000 0000 000000
2018-03-31 08:36:01,0.16,7.18,0.00,25.83,28.24,31.02,13.73,49.37,1018.10,2018.98,1568.06,1731.21,1962.54,599.71,590.95,42.38,0000 0000 0000 0000 000000
2018-03-31 08:41:02,0.18,7.18,0.00,25.83,28.25,31.06,13.69,49.33,1018.10,2018.95,1566.68,1730.20,1961.39,599.83,590.98,42.43,0000 0000 0000 0000 000000
2018-03-31 08:46:03,0.17,7.19,0.00,25.84,28.25,31.07,13.81,49.24,1018.12,2018.97,1565.37,1729.25,1960.30,600.05,591.29,42.48,0000 0000 0000 0000 000000
2018-03-31 08:51:05,0.17,7.20,0.00,25.84,28.25,31.09,13.80,49.09,1018.12,2018.98,1563.98,1728.29,1959.12,600.11,591.39,42.53,0000 0000 0000 0000 000000
2018-03-31 08:56:06,0.18,7.21,0.00,25.87,28.25,31.08,13.83,49.23,1018.13,2018.96,1562.60,1727.29,1957.94,600.22,591.33,42.58,0000 0000 0000 0000 000000
2018-03-31 09:01:07,0.16,7.22,0.00,25.88,28.25,31.10,13.80,49.24,1018.10,2018.96,1561.36,1726.47,1956.80,600.25,591.37,42.63,0000 0000 0000 0000 000000
2018-03-31 09:06:08,0.15,7.23,0.00,25.90,28.27,31.08,13.83,49.08,1018.09,2018.88,1560.05,1725.46,1955.65,600.01,591.12,42.68,0000 0000 0000 0000 000000
2018-03-31 09:11:10,0.18,7.24,0.00,25.89,28.27,31.09,13.81,49.29,1018.09,2018.86,1558.71,1724.51,1954.55,600.11,591.20,42.73,0000 0000 0000 0000 000000
2018-03-31 09:16:11,0.16,7.24,0.00,25.90,28.27,31.12,13.75,49.28,1018.09,2018.88,1557.48,1723.59,1953.48,599.93,591.03,42.78,0000 0000 0000 0000 000000
2018-03-31 09:21:12,0.16,7.25,0.00,25.92,28.27,31.13,13.84,49.16,1018.08,2018.80,1556.11,1722.55,1952.33,600.05,591.24,42.83,0000 0000 0000 0000 000000
2018-03-31 09:26:13,0.15,7.26,0.00,25.93,28.28,31.13,13.73,49.26,1018.08,2018.69,1554.74,1721.57,1951.26,600.05,591.09,42.88,0000 0000 0000 0000 000000
2018-03-31 09:31:15,0.17,7.27,0.00,25.92,28.30,31.16,13.76,49.24,1018.08,2018.48,1553.46,1720.62,1950.01,600.16,591.19,42.93,0000 0000 0000 0000 000000
2018-03-31 09:36:16,0.17,7.28,0.00,25.90,28.30,31.18,13.78,49.27,1018.08,2018.57,1552.17,1719.70,1948.89,599.84,590.96,42.98,0000 0000 0000 0000 000000
2018-03-31 09:41:17,0.17,7.29,0.00,25.89,28.30,31.16,13.80,49.26,1018.08,2018.51,1550.82,1718.69,1947.76,599.74,590.94,43.03,0000 0000 0000 0000 000000
2018-03-31 09:46:19,0.17,7.29,0.00,25.90,28.30,31.15,13.86,49.27,1018.08,2018.46,1549.56,1717.74,1946.65,600.19,591.22,43.08,0000 0000 0000 0000 000000
2018-03-31 09:51:20,0.14,7.30,0.00,25.89,28.30,31.18,13.78,49.18,1018.08,2018.33,1548.36,1716.82,1945.55,599.78,591.00,43.13,0000 0000 0000 0000 000000
2018-03-31 09:56:21,0.13,7.31,0.00,25.89,28.30,31.16,13.86,49.23,1018.08,2018.10,1547.12,1715.85,1944.43,600.17,591.32,43.19,0000 0000 0000 0000 000000
2018-03-31 10:01:23,0.18,7.32,0.00,25.89,28.30,31.20,13.75,49.13,1018.08,2018.10,1545.81,1714.88,1943.34,600.16,591.30,43.24,0000 0000 0000 0000 000000
2018-03-31 10:06:24,0.17,7.33,0.00,25.87,28.30,31.20,13.78,49.08,1018.08,2018.07,1544.54,1713.93,1942.17,599.75,590.95,43.29,0000 0000 0000 0000 000000
2018-03-31 10:11:25,0.16,7.34,0.00,25.87,28.30,31.18,13.82,49.03,1018.06,2018.07,1543.09,1712.96,1941.04,600.18,591.32,43.34,0000 0000 0000 0000 000000
2018-03-31 10:16:27,0.16,7.35,0.00,25.86,28.30,31.18,13.63,49.09,1018.06,2018.10,1541.88,1712.06,1939.98,599.95,591.13,43.39,0000 0000 0000 0000 000000
2018-03-31 10:21:28,0.19,7.35,0.00,25.84,28.30,31.20,13.88,48.99,1018.01,2018.10,1540.63,1711.15,1938.93,600.30,591.48,43.44,0000 0000 0000 0000 000000
2018-03-31 10:26:29,0.17,7.36,0.00,25.83,28.30,31.18,13.79,49.02,1017.96,2018.11,1539.40,1710.19,1937.82,599.99,591.21,43.49,0000 0000 0000 0000 000000
2018-03-31 10:31:30,0.18,7.37,0.00,25.79,28.30,31.19,13.78,49.06,1017.99,2018.14,1538.09,1709.22,1936.75,599.73,591.04,43.54,0000 0000 0000 0000 000000
2018-03-31 10:36:32,0.17,7.38,0.00,25.77,28.30,31.20,13.72,48.95,1018.01,2018.20,1536.90,1708.31,1935.68,600.03,591.37,43.59,0000 0000 0000 0000 000000
2018-03-31 10:41:33,0.17,7.39,0.00,25.76,28.30,31.22,13.76,49.07,1017.95,2018.15,1535.64,1707.42,1934.55,599.86,591.00,43.64,0000 0000 0000 0000 000000
2018-03-31 10:46:34,0.16,7.40,0.00,25.75,28.30,31.21,13.80,48.97,1017.81,2018.08,1534.51,1706.41,1933.44,600.22,591.45,43.69,0000 0000 0000 0000 000000
2018-03-31 10:51:35,0.17,7.41,0.00,25.73,28.29,31.20,13.83,49.02,1017.66,2018.11,1533.24,1705.42,1932.35,600.00,591.21,43.74,0000 0000 0000 0000 000000
2018-03-31 10:56:37,0.16,7.41,0.00,25.71,28.29,31.20,13.68,48.98,1017.61,2018.07,1532.02,1704.47,1931.19,599.80,590.99,43.79,0000 0000 0000 0000 000000
2018-03-31 11:01:38,0.19,7.42,0.00,25.70,28.27,31.22,13.83,49.09,1017.60,2018.07,1530.57,1703.47,1930.04,600.11,591.30,43.84,0000 0000 0000 0000 000000
2018-03-31 11:06:39,0.15,7.43,0.00,25.68,28.27,31.22,13.74,49.17,1017.59,2018.06,1529.64,1702.62,1928.95,599.80,591.04,43.89,0000 0000 0000 0000 000000
2018-03-31 11:11:41,0.18,7.44,0.00,25.65,28.27,31.22,13.77,49.28,1017.59,2018.11,1528.18,1701.62,1927.85,600.18,591.52,43.94,0000 0000 0000 0000 000000
2018-03-31 11:16:42,0.17,7.45,0.00,25.61,28.26,31.23,13.81,49.57,1017.59,2018.12,1526.85,1700.70,1926.72,599.97,591.42,43.99,0000 0000 0000 0000 000000
2018-03-31 11:21:43,0.19,7.46,0.00,25.60,28.25,31.23,13.79,49.42,1017.58,2018.11,1525.63,1699.69,1925.59,600.10,591.50,44.04,0000 0000 0000 0000 000000
2018-03-31 11:26:44,0.16,7.47,0.00,25.58,28.25,31.23,13.79,49.22,1017.56,2018.26,1524.30,1698.85,1924.55,599.83,591.38,44.09,0000 0000 0000 0000 000000
2018-03-31 11:31:45,0.15,7.48,0.00,25.56,28.23,31.24,13.83,49.27,1017.54,2018.16,1523.11,1697.86,1923.46,599.85,591.41,44.15,0000 0000 0000 0000 000000
2018-03-31 11:36:47,0.14,7.49,0.00,25.53,28.22,31.18,13.76,49.17,1017.48,2018.21,1521.97,1697.00,1922.43,599.46,590.96,44.20,0000 0000 0000 0000 000000
2018-03-31 11:41:48,0.20,7.49,0.00,25.51,28.22,31.17,13.82,49.11,1017.31,2018.21,1520.80,1696.07,1921.29,599.99,591.36,44.25,0000 0000 0000 0000 000000
2018-03-31 11:46:49,0.21,7.50,0.00,25.50,28.20,31.20,13.74,49.13,1017.13,2018.44,1519.60,1695.08,1920.25,599.91,591.39,44.30,0000 0000 0000 0000 000000
2018-03-31 11:51:51,0.21,7.52,0.00,25.47,28.20,31.19,13.75,49.08,1017.12,2018.69,1518.05,1694.12,1919.27,599.80,591.11,44.35,0000 0000 0000 0000 000000
2018-03-31 11:56:52,0.17,7.53,0.00,25.44,28.17,31.16,13.81,49.01,1017.12,2018.89,1516.93,1693.21,1918.17,600.10,591.54,44.40,0000 0000 0000 0000 000000
2018-03-31 12:01:53,0.18,7.53,0.00,25.41,28.17,31.17,13.78,48.98,1017.11,2018.90,1515.74,1692.36,1917.06,599.96,591.37,44.45,0000 0000 0000 0000 000000
2018-03-31 12:06:54,0.18,7.54,0.00,25.40,28.16,31.18,13.78,48.92,1017.11,2018.93,1514.48,1691.45,1916.00,599.96,591.56,44.50,0000 0000 0000 0000 000000
2018-03-31 12:11:55,0.17,7.55,0.00,25.37,28.15,31.17,13.89,49.18,1017.11,2018.94,1513.12,1690.40,1914.89,600.00,591.56,44.55,0000 0000 0000 0000 000000
2018-03-31 12:16:56,0.18,7.56,0.00,25.37,28.12,31.14,13.88,49.13,1017.10,2018.98,1511.79,1689.49,1913.82,600.11,591.71,44.60,0000 0000 0000 0000 000000
2018-03-31 12:21:58,0.19,7.57,0.00,25.34,28.11,31.14,13.86,49.12,1017.07,2018.99,1510.39,1688.57,1912.73,600.16,591.70,44.65,0000 0000 0000 0000 000000
2018-03-31 12:26:59,0.19,7.58,0.00,25.32,28.10,31.13,13.83,49.13,1017.02,2018.99,1508.93,1687.58,1911.68,599.99,591.76,44.70,0000 0000 0000 0000 000000
2018-03-31 12:32:01,0.17,7.59,0.00,25.28,28.07,31.12,13.82,49.07,1016.87,2018.99,1507.74,1686.67,1910.56,600.08,591.56,44.75,0000 0000 0000 0000 000000
2018-03-31 12:37:02,0.15,7.60,0.00,25.26,28.06,31.12,13.95,49.14,1016.68,2018.99,1506.69,1685.73,1909.49,600.48,591.92,44.80,0000 0000 0000 0000 000000
2018-03-31 12:42:04,0.17,7.61,0.00,25.23,28.05,31.10,13.88,48.99,1016.63,2018.99,1505.31,1684.79,1908.35,600.10,591.69,44.85,0000 0000 0000 0000 000000
2018-03-31 12:47:05,0.16,7.62,0.00,25.20,28.03,31.12,13.84,49.07,1016.62,2019.00,1504.08,1683.87,1907.23,600.27,591.88,44.90,0000 0000 0000 0000 000000
2018-03-31 12:52:06,0.17,7.62,0.00,25.19,28.01,31.10,13.78,48.98,1016.63,2019.01,1502.94,1682.91,1906.11,600.05,591.76,44.95,0000 0000 0000 0000 000000
2018-03-31 12:57:07,0.17,7.63,0.00,25.15,28.00,31.09,13.83,48.88,1016.62,2019.01,1501.71,1681.94,1905.01,599.94,591.62,45.00,0000 0000 0000 0000 000000